OBJECT F, 44884

Orbit data source: Space-Track

You're viewing an Uncataloged Satellite

Recently launched and/or uncataloged satellites may have evolving metadata. Metadata may include but not limited to: Owner, Maufacturer, Bus, Motor, and Mission.

OBJECT F, 44884 is a satellite in SSO that was launched on Fri, 20 Dec 2019 UTC via a CHANG ZHENG 4B launch vehicle from the Taiyaun Space Center, China (TSC). Unknown objects in Earth's orbit typically refer to objects detected orbiting the Earth but have not yet been identified or cataloged. These objects could be anything from previously untracked satellites, spent rocket stages, debris from satellite collisions, or even natural meteoroids temporarily captured by Earth's gravity.

Loading next visibility...
Identifier
44884, 2019-093F
Orbit
SSO
Country
Flag of TBDTBD
Related business
None
Manufacturer
Unknown
Mission
Operational Commercial Communications
Bus & Motor
Unknown
Mass
Unknown
Launch date (UTC)
2019-12-20 (6 years ago)
Launch vehicle
CHANG ZHENG 4B
Launch site
Taiyaun Space Center, China (TSC)
Object type
Unknown
Shape & HBR
Box, Unknown HBR
Radar Cross Section
0.195 m², Medium (>0.1 m² and < 1m²)

Expand to show TLE details & history
Last TLE update: 6 hours ago

TLE from 6 hours ago
0 OBJECT F
1 44884U 19093F   26104.96378442  .00001266  00000-0  10632-3 0  9996
2 44884  97.7849 194.7965 0012255 244.1234 115.8726 15.00110878342943
Epoch: 2026-04-14T23:07Z
TLE epoch observation values (Epoch: 2026-04-14T23:07:50.973Z)
Latitude
-0.00006°
Longitude
4.70163°
Altitude
573.329 km
Speed
7.572 km/s
True Right ascension
12h 59m 11s
True Declination
0° 00' 00"
Sunlit
Object was in full shadow at epoch
Visualization orbit readout
Latitude
Unknown
Longitude
Unknown
Altitude
Unknown
Speed
Unknown
Apparent Right ascension
Unknown
Apparent Declination
Unknown
Sunlit
N/A
Visualization observer readout
Local Sidereal Time
11:34:24
Azimuth
Unknown
Elevation
Unknown
Doppler factor
Unknown
Orbital elements
Apogee altitude
572.07 km
Perigee altitude
555.056 km
Semi-major axis
6,941.7 km
Eccentricity
0.00123
Inclination
97.7849°
RAAN
194.7965°
Arg. of periapsis
244.1234°
True anomaly
115.99887°
Mean anomaly
115.8726°
Eccentric anomaly
115.93574°
Mean motion
3.7527 °/min
Orbital period
95.93 mins
BSTAR
0.00010632
Loading maneuver chart data...
Computing Atmospheric mass density...
Loading historical data...
Loading historical data...
Loading historical data...
Loading historical data...
Loading historical data...
Loading historical data...
Loading historical data...

Documentation

Showing up to 5 results
|